Weather Roundup
Issued by NWS Springfield, MO

Home | Current Version | Previous Version | Text Only | Print | Product List | Glossary Off
Versions: 1 2 3 4 5 6 7 8 9 10 11 12 13 14 15 16 17 18 19 20 21 22 23 24 25 26 27 28 29 30 31 32 33 34 35 36 37 38 39 40 41 42 43 44 45 46 47 48 49 50

000
NZUS99 KSGF 280907
HRRSGF

HOURLY WEATHER
NATIONAL WEATHER SERVICE SPRINGFIELD MO
300 AM CST FRI NOV 28 2014

......SGF CWA......

CITY           SKY/WX    TMP DP  RH WIND       PRES   REMARKS
SPRINGFIELD    CLEAR     33  24  69 S14       30.24F WCI  23
JOPLIN         CLEAR     35  25  66 S12       30.23F WCI  27
WEST PLAINS    CLEAR     30  22  72 CALM      30.32F
ROLLA          CLEAR     29  21  72 SE12      30.27F WCI  19
OSAGE BEACH    CLEAR     30  21  69 S9        30.26F WCI  22
BRANSON        CLEAR     28  25  86 SE6       30.30S WCI  22

......SURROUNDING SGF CWA......

CITY           SKY/WX    TMP DP  RH WIND       PRES   REMARKS
CHANUTE        CLEAR     32  26  78 SE13      30.16F WCI  22
PARSONS        CLEAR     37  27  67 S9        30.20F WCI  30
COFFEYVILLE    CLEAR     34  27  75 S8        30.20F WCI  27
EMPORIA        CLEAR     31  23  72 S16       30.09F WCI  20
GROVE OK       CLEAR     36  28  75 SE6       30.26F WCI  31
ROGERS AR      CLEAR     35  25  66 SE8       30.27F WCI  29
SILOAM SPRINGS CLEAR     36  21  55 S6        30.28S WCI  31
HARRISON AR    CLEAR     34  26  72 SE5       30.29R WCI  30
NEAR YELLVILLE CLEAR     28  21  74 E3        30.33S

......KANSAS AND MISSOURI......

CITY           SKY/WX    TMP DP  RH WIND       PRES   REMARKS
KANSAS CTY INT PTCLDY    33  23  66 S15       30.11F WCI  23
DOWNTOWN KC    CLEAR     36  22  56 S12G23    30.14F WCI  28
COLUMBIA       CLEAR     28  23  81 SE10      30.27F WCI  19
SEDALIA        CLEAR     30  23  75 S12       30.22F WCI  20
ST JOSEPH      CLEAR     31  22  69 S12       30.13F WCI  22
ST LOUIS       MOCLDY    27  20  75 SE9       30.37F WCI  18
SPIRIT OF STL  MOCLDY    27  21  78 E7        30.35F WCI  19
KIRKSVILLE     CLEAR     21  18  88 SE12      30.23F WCI   9
WICHITA        PTCLDY    37  24  59 S15       30.08F WCI  28
TOPEKA         CLEAR     36  23  59 S8        30.11F WCI  30
OLATHE         CLEAR     31  23  72 S12       30.13F WCI  22

......TENNESSEE......

CITY           SKY/WX    TMP DP  RH WIND       PRES   REMARKS
MEMPHIS        PTCLDY    32  25  75 SE6       30.43S WCI  26
NASHVILLE      MOCLDY    25  21  85 CALM      30.45S

......ARKANSAS.......

CITY           SKY/WX    TMP DP  RH WIND       PRES   REMARKS
FAYETTEVILLE   CLEAR     35  26  69 S3        30.28R
FT SMITH       CLEAR     33  27  78 NE6       30.32S WCI  28
LITTLE ROCK    CLEAR     35  28  75 S3        30.41S

......OKLAHOMA.......

CITY           SKY/WX    TMP DP  RH WIND       PRES   REMARKS
TULSA          CLEAR     41  26  55 S15       30.21F
PONCA CITY     CLEAR     41  24  51 S6        30.15S
MCALESTER      PTCLDY    44  27  51 S9G18     30.28S
OKLAHOMA CITY  MOCLDY    45  25  45 S15       30.19F

......IOWA............

CITY           SKY/WX    TMP DP  RH WIND       PRES   REMARKS
DES MOINES     PTCLDY    20  13  74 SE13      30.12F WCI   7
QUAD CITIES    CLOUDY    16   9  74 SE6       30.33F WCI   7

......ILLINOIS........

CITY           SKY/WX    TMP DP  RH WIND       PRES   REMARKS
QUINCY         PTCLDY    20  13  74 SE8       30.31F WCI  10
CHICAGO        CLOUDY    19  11  70 SW5       30.36F WCI  12



USA.gov is the U.S. government's official web portal to all federal, state and local government web resources and services.